Temperature
21 21 21 21 20 20 20 19 19 19 19 19 19 18 18 18 18 18 18 18 18 18 18 18 18 18 18 18 18 18 18 18 18 17 17 17 17 17 17 17 17 17 17
21 20 20 20 20 20 20 19 19 19 19 19 18 18 18 18 18 18 18 18 18 18 18 18 18 18 18 18 18 18 18 17 17 17 17 17 17 17 17 17 17 17 17
21 20 20 20 20 20 20 19 19 19 19 19 18 18 18 18 18 18 18 18 18 18 18 18 18 18 18 18 18 18 18 17 17 17 17 17 17 17 17 17 17 17 17
21 20 20 20 20 20 19 19 19 19 19 19 18 18 18 18 18 18 18 18 18 18 18 18 18 18 18 18 17 17 17 17 17 17 17 17 17 17 16 17 17 17 17
21 20 20 20 20 20 19 19 19 19 19 18 18 18 18 18 18 18 18 18 17 17 17 17 17 17 17 17 17 17 17 17 17 17 17 17 17 17 17 16 16 16 17
21 21 20 20 20 19 19 19 19 19 19 18 18 18 18 18 18 18 18 18 17 17 17 17 17 17 17 17 17 17 17 17 17 17 17 17 17 17 17 16 16 16 16
21 21 20 20 19 19 19 19 19 19 18 18 18 18 18 18 18 18 17 17 17 17 17 17 17 17 17 17 17 17 17 17 17 17 17 17 17 17 17 16 16 16 16
21 20 20 20 20 19 19 19 19 19 19 18 18 18 18 17 17 17 17 17 17 17 17 17 17 17 17 17 17 17 17 17 17 16 16 16 16 16 16 16 16 15 15
21 21 20 20 20 19 19 19 19 19 18 18 18 18 17 17 17 17 17 17 17 17 17 17 17 17 17 16 16 16 16 16 16 16 16 16 16 16 16 16 16 16 15
21 21 21 20 20 19 19 19 19 19 18 18 18 17 17 17 17 17 17 17 17 17 17 17 17 17 16 16 16 16 16 16 16 16 16 16 16 16 16 16 16 15 15
21 21 20 20 20 19 19 19 18 18 18 18 18 18 17 17 17 17 16 16 16 16 16 16 16 16 16 16 16 16 16 16 16 16 16 16 16 15 15 15 15 15 15
21 21 21 20 20 19 19 19 18 18 18 18 17 17 17 17 17 16 16 16 16 16 16 16 16 16 16 16 16 16 16 16 15 15 15 15 15 15 15 15 15 15 15
21 21 20 20 19 19 19 18 18 18 18 17 17 17 17 17 16 16 16 16 16 16 16 16 16 16 16 16 16 16 15 15 15 15 15 15 15 15 15 15 15 15 14
21 21 20 20 19 19 19 18 18 18 17 17 17 17 17 16 16 16 16 15 15 15 16 16 15 15 15 15 15 15 15 15 15 15 15 15 15 15 14 14 14 14 14
21 20 20 20 19 19 18 18 18 18 17 17 17 17 16 16 16 16 16 15 15 15 15 15 15 15 15 15 15 15 15 15 14 14 14 14 14 14 14 14 14 14 14
20 20 20 19 19 19 18 18 18 17 17 17 16 16 16 16 16 15 15 15 15 15 15 15 15 15 14 14 14 14 14 14 14 14 14 14 14 14 14 14 14 13 13
20 20 20 19 19 18 18 18 17 17 17 16 16 16 16 16 15 15 15 15 14 14 14 14 14 14 14 14 14 14 14 14 14 13 13 13 13 13 13 13 13 13 13
20 20 20 19 19 18 18 18 17 17 17 16 16 16 15 15 15 15 14 14 14 14 14 14 14 14 14 14 14 14 14 13 13 13 13 13 13 13 13 13 13 13 13
20 19 19 19 19 18 18 17 17 17 16 16 16 15 15 15 15 14 14 14 14 14 14 14 14 13 13 13 13 13 13 13 13 13 13 13 13 13 13 13 13 12 12
19 19 19 19 18 18 17 17 17 16 16 16 15 15 15 15 14 14 14 14 13 13 13 13 13 13 13 13 13 13 13 13 13 13 13 13 13 12 12 12 12 12 12
19 19 18 18 18 17 17 17 16 16 16 15 15 15 15 14 14 14 14 13 13 13 13 13 13 13 13 13 13 13 12 12 12 12 12 12 12 12 12 12 12 12 12
18 18 18 17 17 17 16 16 16 16 15 15 15 15 14 14 14 14 14 13 13 13 13 13 13 13 13 12 12 12 12 12 12 12 12 11 12 12 12 12 11 11 11
18 18 17 17 16 16 16 16 15 15 15 15 14 14 14 14 14 14 13 13 13 13 13 13 13 13 12 12 12 12 12 12 12 12 11 11 11 11 11 11 11 11 11
17 17 17 16 16 16 15 15 15 15 14 14 14 14 14 13 13 13 13 13 13 13 13 12 12 12 12 12 12 12 12 12 11 11 11 11 11 11 11 11 11 11 11
17 16 16 16 16 15 15 15 15 14 14 14 13 13 13 13 13 13 13 13 13 12 12 12 12 12 12 12 11 11 11 11 11 11 11 11 11 11 11 11 10 10 10
16 16 16 16 15 15 15 15 14 14 14 13 13 13 13 13 13 13 13 12 12 12 12 12 12 12 11 11 11 11 11 11 11 11 11 11 10 10 10 10 10 10 10
Wind_Speed
7 7 7 7 6 4 4 3 2 1 1 1 1 1 0 0 0 1 2 2 2 2 1 1 1 1 2 2 2 1 1 1 2 2 1 2 1 0 1 2 2 3 5
6 6 6 6 6 5 4 3 2 1 1 1 1 2 1 1 0 0 0 1 1 1 1 2 1 2 1 1 1 2 1 1 2 2 2 1 2 2 1 1 2 2 2
9 8 7 6 5 5 4 3 2 2 1 0 0 1 2 2 2 2 1 1 0 1 1 1 2 2 2 2 1 2 2 1 1 2 3 2 2 1 2 1 1 1 2
8 7 7 6 6 5 4 3 2 2 1 1 2 2 2 1 0 0 0 1 1 1 1 1 1 1 1 1 2 1 1 2 1 1 1 2 3 2 1 2 1 0 1
9 8 8 7 6 5 5 3 2 1 1 2 2 2 2 1 1 1 2 2 2 2 1 1 1 1 1 1 1 1 1 1 1 1 1 1 0 1 2 1 2 1 1
7 9 7 6 4 3 4 4 3 1 1 2 2 3 2 2 2 2 1 1 2 2 2 2 1 1 0 1 1 1 1 1 1 1 1 2 2 2 2 2 2 2 2
7 9 8 6 4 3 3 4 4 2 2 2 2 2 3 3 3 2 1 1 1 1 2 1 1 1 0 0 1 1 1 1 1 1 1 1 1 2 2 2 2 2 2
7 8 9 8 5 4 4 5 4 3 2 2 1 2 2 2 2 1 1 1 0 0 1 1 1 1 1 1 0 0 1 0 1 1 1 1 1 1 2 2 3 1 1
8 9 8 8 7 6 5 5 4 3 3 2 2 2 2 2 2 1 1 0 1 1 1 1 1 2 2 2 1 0 1 0 1 1 1 1 1 0 1 1 2 3 2
8 7 7 7 7 6 5 5 4 4 3 2 2 2 2 2 2 2 1 1 1 1 1 1 1 1 2 2 2 1 1 1 1 0 0 0 1 1 0 1 1 1 2
8 8 7 7 7 6 5 5 4 4 3 3 3 3 2 2 2 1 0 0 1 1 1 0 1 1 2 2 1 1 2 1 1 1 1 1 0 0 1 0 1 1 1
8 7 7 7 6 6 5 5 5 4 3 3 3 2 2 2 1 1 1 0 0 1 0 0 1 1 1 1 1 1 1 1 1 1 0 1 1 1 1 0 1 1 1
7 6 6 6 6 5 5 5 4 4 4 4 3 2 2 1 1 0 0 0 0 1 2 1 1 1 1 2 1 1 1 1 1 1 1 2 1 1 1 1 1 1 1
6 6 6 6 6 5 5 5 4 4 4 4 4 2 2 1 1 0 0 0 1 1 1 1 2 1 1 2 2 1 1 2 2 1 1 1 1 1 1 1 1 1 1
7 7 6 6 6 5 4 4 4 3 4 4 3 2 1 1 1 1 0 1 0 1 1 2 2 2 1 2 2 1 1 1 1 1 1 1 0 0 1 1 1 1 1
8 7 7 6 6 5 5 5 4 4 4 4 3 2 1 1 1 1 1 0 1 1 1 1 1 2 2 3 2 1 1 1 1 1 2 1 2 2 2 2 1 2 3
8 8 7 6 6 5 6 5 5 4 4 4 3 2 2 1 1 0 1 1 1 0 0 1 1 2 3 2 2 3 1 1 1 1 1 1 2 1 1 2 2 1 1
7 7 6 6 5 5 5 5 4 4 4 3 2 1 2 1 1 1 1 1 1 1 1 1 1 2 3 2 2 2 2 1 1 1 1 1 2 1 1 1 2 2 2
6 6 6 6 5 5 5 5 4 3 3 3 2 2 2 1 1 2 2 1 1 1 1 1 1 1 3 3 2 2 1 2 3 3 2 1 2 3 1 1 1 2 3
5 5 5 5 5 4 5 6 4 3 2 3 3 2 2 2 2 2 2 1 1 1 1 1 1 0 1 3 3 3 1 2 3 3 3 3 2 3 2 2 2 2 3
4 5 5 4 3 4 5 5 4 2 2 2 2 2 2 3 2 2 1 1 1 1 1 1 2 1 1 2 3 3 1 2 3 3 3 3 5 4 3 3 3 4 3
4 5 5 3 2 3 5 4 3 3 2 2 2 1 2 2 1 1 1 1 1 1 1 1 2 2 2 2 2 2 2 2 2 3 3 4 5 4 4 2 3 3 2
4 4 5 4 2 2 4 4 3 2 2 2 1 2 2 2 1 1 1 1 1 1 1 1 1 2 2 3 4 4 4 4 2 3 5 5 4 3 2 3 3 2 1
4 4 5 4 1 1 2 3 3 2 2 2 2 2 2 2 1 1 1 1 1 1 1 1 2 2 3 3 3 3 3 4 3 4 4 4 3 2 2 2 2 1 1
3 4 4 4 2 2 2 2 2 2 2 2 1 1 1 2 1 1 2 2 3 3 3 3 3 2 3 4 4 2 3 3 3 3 2 2 2 2 2 2 2 2 1
4 4 3 3 2 2 1 1 2 2 2 1 2 2 1 1 1 1 2 3 3 3 3 4 4 3 4 5 4 4 4 4 3 1 1 2 2 2 2 2 2 2 2
Wind_Direction
163 153 147 142 130 126 126 122 114 107 124 128 133 129 107 345 356 216 196 190 196 187 151 143 135 138 153 177 162 150 169 167 119 93 22 347 352 317 231 206 178 180 187
160 161 154 145 147 151 154 152 155 145 153 197 197 180 178 200 166 333 281 172 177 178 156 147 151 151 145 138 151 144 142 175 140 129 118 8 342 334 305 211 182 187 177
174 171 165 162 158 163 171 171 176 182 206 210 87 64 56 37 27 14 350 320 172 166 144 151 153 161 159 185 208 173 158 180 198 154 151 159 220 279 327 306 192 183 189
175 174 169 167 172 178 178 172 180 183 192 142 115 116 123 130 247 257 6 359 14 53 94 132 138 157 155 179 207 170 171 159 204 234 207 179 164 166 271 318 310 147 196
180 178 176 169 169 169 166 168 158 158 131 120 133 126 118 129 86 64 56 30 10 20 49 88 98 107 133 154 187 160 159 158 180 201 202 175 98 132 157 250 291 315 263
169 167 169 155 151 154 159 151 136 146 140 127 131 135 135 124 99 77 62 24 9 11 16 44 48 63 132 173 196 177 179 191 172 159 154 167 167 181 166 198 238 260 273
151 154 158 159 157 157 169 151 146 164 164 148 155 151 153 146 140 139 124 76 21 1 349 24 29 26 346 228 199 181 203 197 180 183 206 202 196 177 165 166 209 245 273
155 156 156 153 150 156 165 155 161 167 159 147 160 162 152 150 152 145 135 131 209 278 340 23 16 5 5 6 5 218 248 219 205 193 191 219 253 190 173 173 171 207 280
165 165 160 156 157 157 152 160 169 163 153 152 135 126 129 128 124 116 103 325 304 312 21 39 30 8 4 359 2 337 267 260 241 240 218 226 262 194 182 169 175 177 221
166 160 158 162 165 164 159 151 156 171 158 140 141 130 112 113 106 93 77 45 325 323 13 15 22 12 6 7 9 1 2 48 318 207 103 326 285 335 326 188 186 181 201
163 160 157 161 162 155 150 150 150 138 130 126 117 115 121 133 121 117 138 195 299 328 15 41 26 6 4 5 19 6 21 32 344 339 47 321 299 328 305 215 181 196 193
154 156 156 154 154 154 149 149 149 147 149 141 123 125 118 112 119 141 241 227 303 319 313 35 42 11 10 7 16 4 1 340 311 300 350 313 329 352 310 289 233 219 213
149 150 148 151 151 153 148 144 144 143 142 132 123 118 114 115 136 188 314 52 26 14 26 41 41 355 346 345 336 343 320 312 292 277 254 274 322 328 314 300 265 249 234
150 146 149 151 147 145 144 141 143 141 134 126 122 127 144 154 160 117 40 354 17 40 27 26 24 11 358 352 345 349 333 315 299 283 273 274 256 241 244 250 258 231 202
145 148 152 152 147 145 144 140 141 143 137 130 134 160 171 135 114 100 40 4 16 45 44 40 10 350 348 342 359 352 349 332 319 306 291 285 336 16 286 265 231 194 195
156 157 154 150 152 155 149 144 144 150 139 138 164 181 148 121 140 189 176 90 44 42 54 43 355 344 333 348 11 30 358 360 352 321 303 305 326 334 339 342 284 214 207
160 161 161 160 160 155 149 151 158 154 146 155 165 168 159 153 196 229 192 198 201 120 14 294 297 303 313 343 29 42 43 23 1 322 302 310 334 334 315 339 359 342 279
152 157 152 146 145 144 142 141 137 143 148 153 157 164 173 194 215 201 223 238 233 228 264 291 287 296 329 9 34 28 18 5 318 282 256 259 296 318 330 1 5 337 314
145 146 148 145 142 141 139 127 122 133 143 163 180 191 192 204 218 229 243 234 222 254 263 265 290 337 326 344 357 19 4 346 324 312 305 269 272 293 314 88 352 328 322
123 130 132 126 133 150 137 127 128 126 154 188 193 196 191 194 216 232 240 241 222 243 256 287 288 263 310 337 352 1 344 333 321 323 322 311 295 283 243 189 197 266 285
120 120 117 120 139 141 130 128 136 166 198 179 172 189 201 204 212 220 234 262 256 261 256 266 293 307 309 326 346 351 338 299 307 314 311 307 307 290 264 225 213 239 256
120 120 118 115 122 128 128 132 165 199 172 139 142 187 226 225 211 204 239 263 254 262 269 286 313 315 307 317 331 334 314 306 287 287 290 294 300 291 281 263 264 266 270
130 125 125 120 110 129 138 150 191 188 143 137 178 214 232 243 228 206 238 265 267 247 269 272 287 300 304 304 301 299 300 308 292 282 290 296 293 293 297 308 299 293 258
135 128 123 128 151 170 157 176 190 177 154 170 217 237 237 260 274 259 227 242 253 234 238 250 276 294 299 297 307 312 313 319 316 308 312 310 308 320 324 334 331 314 247
141 140 146 151 165 164 164 196 198 172 171 202 228 241 230 220 234 264 260 243 245 220 209 218 217 242 278 278 280 294 312 314 310 320 337 351 356 349 343 342 333 327 336
139 138 144 152 165 170 211 235 211 177 171 208 242 231 222 225 219 228 305 304 264 277 249 224 215 243 251 266 291 306 308 315 334 45 350 316 302 290 289 300 311 309 290
Height
1528 1529 1529 1529 1529 1530 1530 1530 1530 1530 1530 1530 1529 1529 1528 1528 1528 1528 1528 1528 1528 1527 1526 1526 1525 1525 1524 1524 1524 1524 1524 1525 1525 1526 1526 1527 1527 1527 1528 1528 1529 1530 1531
1528 1528 1528 1528 1529 1529 1530 1530 1530 1530 1530 1529 1529 1528 1528 1528 1528 1528 1528 1528 1527 1527 1526 1525 1525 1524 1524 1523 1523 1523 1523 1524 1524 1525 1525 1525 1527 1526 1526 1527 1527 1528 1529
1526 1527 1527 1528 1528 1529 1529 1529 1529 1529 1529 1529 1528 1528 1527 1527 1527 1527 1527 1527 1527 1526 1525 1525 1524 1524 1523 1523 1522 1522 1522 1522 1523 1524 1524 1524 1524 1525 1525 1525 1525 1526 1527
1526 1527 1527 1527 1528 1528 1529 1529 1529 1529 1528 1528 1527 1527 1526 1526 1526 1526 1526 1526 1526 1525 1524 1524 1524 1523 1523 1522 1522 1522 1522 1522 1522 1522 1523 1523 1523 1523 1523 1523 1524 1524 1525
1525 1526 1526 1527 1528 1528 1528 1529 1529 1528 1528 1527 1527 1526 1526 1526 1526 1526 1526 1526 1525 1525 1524 1523 1523 1522 1522 1521 1521 1521 1521 1521 1521 1521 1521 1521 1521 1522 1521 1521 1521 1522 1523
1524 1525 1527 1527 1528 1529 1528 1528 1528 1527 1527 1526 1526 1526 1525 1525 1525 1525 1525 1525 1525 1524 1524 1523 1522 1522 1521 1520 1520 1519 1519 1519 1519 1519 1519 1519 1519 1520 1520 1519 1519 1520 1520
1522 1523 1525 1526 1527 1527 1527 1527 1526 1526 1526 1525 1525 1525 1525 1525 1525 1525 1525 1524 1524 1524 1523 1523 1522 1521 1520 1519 1519 1518 1518 1518 1517 1517 1518 1518 1518 1518 1518 1517 1517 1518 1518
1521 1522 1523 1524 1525 1526 1525 1525 1526 1525 1525 1525 1524 1524 1524 1524 1524 1524 1525 1524 1524 1523 1523 1522 1521 1520 1519 1518 1518 1517 1516 1516 1516 1516 1516 1516 1516 1516 1516 1516 1516 1516 1516
1520 1521 1523 1523 1525 1525 1524 1525 1525 1524 1524 1524 1524 1523 1524 1524 1524 1524 1524 1524 1523 1523 1522 1521 1521 1520 1519 1517 1516 1515 1515 1515 1515 1514 1514 1514 1514 1514 1514 1514 1514 1515 1514
1519 1521 1522 1523 1524 1524 1524 1525 1525 1524 1524 1523 1523 1523 1523 1523 1523 1523 1523 1523 1523 1522 1521 1520 1520 1519 1518 1517 1515 1514 1514 1513 1513 1513 1513 1512 1512 1512 1512 1512 1512 1512 1512
1519 1520 1521 1522 1523 1524 1524 1524 1524 1524 1523 1523 1523 1523 1523 1523 1522 1522 1522 1522 1521 1521 1521 1520 1519 1518 1517 1516 1515 1513 1513 1512 1511 1511 1511 1511 1510 1510 1510 1510 1510 1510 1510
1518 1519 1521 1522 1522 1523 1523 1523 1523 1523 1523 1523 1523 1523 1522 1522 1521 1521 1520 1520 1520 1520 1519 1519 1518 1517 1516 1515 1514 1512 1511 1511 1510 1510 1509 1509 1509 1508 1508 1507 1507 1507 1507
1517 1519 1520 1520 1521 1521 1522 1523 1523 1523 1523 1523 1522 1522 1521 1521 1520 1520 1519 1519 1518 1518 1517 1517 1516 1515 1514 1513 1512 1511 1510 1509 1508 1508 1507 1507 1507 1506 1506 1505 1505 1505 1504
1517 1518 1519 1520 1520 1521 1521 1521 1522 1522 1522 1522 1521 1521 1520 1519 1519 1519 1518 1517 1517 1516 1516 1515 1514 1513 1512 1512 1511 1509 1508 1507 1507 1506 1506 1505 1504 1504 1503 1503 1503 1502 1502
1516 1517 1518 1519 1519 1520 1521 1521 1521 1521 1521 1521 1520 1520 1519 1518 1518 1517 1517 1516 1515 1515 1514 1513 1512 1512 1511 1510 1509 1507 1506 1505 1505 1504 1503 1503 1502 1501 1501 1500 1500 1499 1499
1515 1516 1517 1518 1519 1520 1520 1520 1520 1520 1520 1520 1519 1518 1518 1517 1516 1516 1515 1514 1514 1513 1512 1511 1511 1510 1509 1508 1507 1506 1505 1503 1502 1502 1501 1500 1500 1499 1498 1498 1497 1497 1496
1514 1516 1516 1517 1518 1519 1519 1519 1520 1520 1519 1519 1518 1517 1517 1516 1515 1515 1514 1513 1512 1512 1511 1510 1509 1508 1508 1507 1505 1504 1503 1501 1500 1499 1498 1497 1497 1496 1495 1495 1494 1494 1493
1514 1515 1516 1516 1517 1518 1519 1519 1519 1519 1518 1517 1517 1516 1516 1515 1514 1513 1512 1512 1511 1510 1509 1509 1508 1507 1506 1505 1504 1503 1501 1500 1498 1497 1496 1495 1494 1493 1493 1492 1491 1491 1490
1513 1514 1515 1516 1517 1517 1518 1518 1518 1517 1517 1516 1516 1515 1515 1514 1513 1512 1511 1511 1510 1509 1507 1507 1506 1505 1504 1503 1502 1501 1499 1497 1496 1495 1494 1493 1492 1491 1490 1489 1488 1488 1487
1513 1514 1515 1515 1516 1516 1516 1516 1516 1516 1515 1515 1514 1514 1513 1513 1512 1511 1510 1510 1509 1508 1507 1506 1505 1503 1503 1502 1499 1499 1497 1495 1493 1492 1491 1490 1489 1488 1487 1486 1485 1484 1484
1513 1513 1514 1514 1515 1515 1515 1515 1515 1514 1514 1514 1513 1513 1512 1512 1511 1510 1509 1509 1508 1507 1505 1504 1503 1502 1501 1500 1498 1497 1495 1493 1491 1490 1488 1487 1486 1485 1484 1484 1483 1482 1482
1512 1513 1513 1513 1514 1514 1514 1514 1513 1513 1513 1512 1512 1511 1511 1510 1510 1509 1508 1507 1506 1505 1503 1502 1501 1500 1499 1498 1496 1495 1493 1492 1490 1488 1486 1485 1484 1482 1482 1481 1481 1480 1479
1511 1512 1512 1512 1513 1513 1513 1512 1512 1512 1511 1511 1510 1510 1509 1509 1508 1507 1506 1505 1504 1503 1501 1500 1499 1497 1496 1495 1494 1493 1491 1489 1487 1485 1484 1483 1482 1480 1479 1479 1478 1477 1476
1510 1510 1511 1511 1511 1511 1511 1511 1511 1510 1510 1509 1509 1508 1508 1507 1506 1506 1504 1503 1502 1500 1500 1499 1497 1496 1494 1493 1491 1490 1488 1486 1485 1483 1482 1481 1480 1478 1477 1476 1476 1474 1473
1509 1509 1509 1509 1510 1510 1509 1509 1509 1509 1508 1507 1507 1506 1505 1505 1504 1503 1502 1501 1500 1499 1498 1497 1496 1494 1492 1491 1490 1488 1486 1484 1482 1480 1479 1478 1477 1476 1474 1474 1473 1472 1471
1507 1508 1508 1508 1508 1508 1507 1507 1507 1506 1506 1505 1504 1504 1503 1502 1502 1501 1500 1499 1498 1497 1496 1495 1494 1492 1492 1490 1488 1486 1484 1482 1481 1479 1477 1476 1475 1473 1472 1471 1470 1469 1468